FW1436 Weather Reports


Display with metric or nautical units.
time (UTC)temp
F
wind
direction
speed
MPH
gust
MPH
rain 1hr
in
rain 24hr
in
rain mn
in
humidity
%
barometer
mb
20260901063030 65 158 0.0 0.0 0.00 0.00 0.00 61 1014.7
20260901061519 0 0.0 0.0 0.00 0.00 0.00 1014.7
20260901060011 0 0.0 0.0 0.00 0.00 0.00 1014.6
20260901054506 0 0.0 0.0 0.00 0.00 0.00 1014.5
20260901053001 0 0.0 0.0 0.00 0.00 0.00 1014.4
20260901051557 0 0.0 0.0 0.00 0.00 0.00 1014.2
20260901050054 66 214 0.0 1.0 0.00 0.00 0.00 60 1014.3
20260901044559 66 85 0.0 0.0 0.00 0.00 0.00 60 1014.0
20260901043049 66 85 0.0 0.0 0.00 0.00 0.00 57 1014.1
20260901041544 67 85 0.0 0.0 0.00 0.00 0.00 56 1013.9
20260901040047 68 84 0.0 2.0 0.00 0.00 0.00 54 1013.9
20260901034542 68 109 0.0 1.0 0.00 0.00 0.00 53 1013.9
20260901033041 68 109 0.0 1.0 0.00 0.00 0.00 53 1013.8
20260901031540 68 109 0.0 1.0 0.00 0.00 0.00 53 1013.7
20260901030040 68 109 0.0 1.0 0.00 0.00 0.00 53 1013.7
20260901024637 69 108 0.0 3.0 0.00 0.00 0.00 51 1013.6
20260901023041 69 98 0.0 2.0 0.00 0.00 0.00 50 1013.7
20260901021541 70 82 0.0 4.0 0.00 0.00 0.00 49 1013.8
20260901020041 70 96 0.0 3.0 0.00 0.00 0.00 48 1013.7
20260901014531 70 84 2.0 3.0 0.00 0.00 0.00 47 1013.7
20260901013031 70 109 0.0 2.0 0.00 0.00 0.00 46 1013.6
20260901011531 70 91 0.0 2.0 0.00 0.00 0.00 45 1013.8
20260901010030 70 52 0.0 1.0 0.00 0.00 0.00 44 1013.8
20260901004529 71 29 0.0 2.0 0.00 0.00 0.00 43 1013.9
20260901003029 72 130 0.0 8.0 0.00 0.00 0.00 42 1013.9
20260901001526 70 8 0.0 2.0 0.00 0.00 0.00 43 1013.8
20260901000024 70 141 0.0 1.0 0.00 0.00 0.00 44 1013.7
20260831234624 70 141 0.0 0.0 0.00 0.00 0.00 45 1013.6
20260831233020 69 141 0.0 0.0 0.00 0.00 0.00 42 1013.5
20260831231517 71 141 0.0 0.0 0.00 0.00 0.00 42 1013.5
20260831230022 71 141 0.0 0.0 0.00 0.00 0.00 42 1013.5
20260831224513 72 141 0.0 0.0 0.00 0.00 0.00 41 1013.3
20260831223010 73 159 0.0 0.0 0.00 0.00 0.00 42 1013.3
20260831221506 74 249 0.0 0.0 0.00 0.00 0.00 40 1013.2
20260831220007 74 249 0.0 0.0 0.00 0.00 0.00 38 1013.2
20260831214503 76 249 0.0 0.0 0.00 0.00 0.00 37 1013.2
20260831213004 77 293 0.0 1.0 0.00 0.00 0.00 36 1013.2
20260831211502 78 297 1.0 2.0 0.00 0.00 0.00 34 1013.1
20260831210001 78 302 0.0 2.0 0.00 0.00 0.00 35 1013.1
20260831204601 79 276 0.0 2.0 0.00 0.00 0.00 36 1013.0
20260831203111 79 12 0.0 3.0 0.00 0.00 0.00 36 1012.8
20260831201600 79 246 0.0 0.0 0.00 0.00 0.00 36 1012.7
20260831200059 80 233 0.0 0.0 0.00 0.00 0.00 35 1012.4
20260831194636 81 233 0.0 0.0 0.00 0.00 0.00 33 1012.2
20260831193100 81 233 0.0 0.0 0.00 0.00 0.00 32 1012.0
20260831191600 83 265 0.0 0.0 0.00 0.00 0.00 30 1011.9
20260831190113 84 283 0.0 1.0 0.00 0.00 0.00 30 1012.0
20260831184605 86 274 1.0 4.0 0.00 0.00 0.00 28 1011.9
20260831183100 87 275 1.0 6.0 0.00 0.00 0.00 27 1011.9
20260831181559 89 307 1.0 7.0 0.00 0.00 0.00 26 1011.8
20260831180051 89 275 1.0 6.0 0.00 0.00 0.00 27 1011.9
20260831174551 90 290 1.0 8.0 0.00 0.00 0.00 26 1012.0
20260831173053 90 277 4.0 10.0 0.00 0.00 0.00 25 1012.0
20260831171549 90 251 3.0 10.0 0.00 0.00 0.00 25 1012.0
20260831170049 90 295 3.0 9.0 0.00 0.00 0.00 23 1012.1
20260831164555 91 302 2.0 9.0 0.00 0.00 0.00 24 1012.0
20260831163049 91 160 1.0 6.0 0.00 0.00 0.00 26 1012.1
20260831161545 91 321 2.0 4.0 0.00 0.00 0.00 26 1012.2
20260831160042 91 54 1.0 6.0 0.00 0.00 0.00 27 1012.4
20260831154548 91 68 2.0 10.0 0.00 0.00 0.00 26 1012.5
20260831153037 90 300 2.0 8.0 0.00 0.00 0.00 27 1012.6
20260831151535 90 255 1.0 8.0 0.00 0.00 0.00 27 1012.7
20260831150034 90 261 3.0 9.0 0.00 0.00 0.00 27 1012.8
20260831144536 89 288 2.0 12.0 0.00 0.00 0.00 27 1012.8
20260831143134 89 325 2.0 6.0 0.00 0.00 0.00 28 1012.8
20260831141545 89 286 3.0 7.0 0.00 0.00 0.00 27 1013.0
20260831140038 89 295 2.0 10.0 0.00 0.00 0.00 27 1013.1
20260831134534 88 220 1.0 4.0 0.00 0.00 0.00 30 1013.3
20260831133031 88 49 1.0 9.0 0.00 0.00 0.00 29 1013.4
20260831131520 87 261 2.0 8.0 0.00 0.00 0.00 30 1013.5
20260831130019 87 300 4.0 10.0 0.00 0.00 0.00 30 1013.6
20260831124520 86 323 2.0 9.0 0.00 0.00 0.00 30 1013.9
20260831123020 86 327 3.0 10.0 0.00 0.00 0.00 31 1014.0
20260831121515 85 154 1.0 5.0 0.00 0.00 0.00 32 1014.1
20260831120013 85 300 2.0 5.0 0.00 0.00 0.00 33 1014.3
20260831114512 85 245 5.0 10.0 0.00 0.00 0.00 34 1014.4
20260831113013 83 4 1.0 5.0 0.00 0.00 0.00 35 1014.5
20260831111508 83 67 1.0 7.0 0.00 0.00 0.00 36 1014.8
20260831110006 82 212 1.0 5.0 0.00 0.00 0.00 36 1014.9
20260831104505 81 95 1.0 4.0 0.00 0.00 0.00 37 1015.1
20260831103002 81 271 0.0 4.0 0.00 0.00 0.00 38 1015.2
20260831101616 80 96 2.0 6.0 0.00 0.00 0.00 37 1015.3
20260831100108 79 108 4.0 8.0 0.00 0.00 0.00 37 1015.3
20260831094559 78 78 3.0 10.0 0.00 0.00 0.00 36 1015.3
20260831093054 78 101 2.0 7.0 0.00 0.00 0.00 38 1015.2
20260831091550 77 83 1.0 4.0 0.00 0.00 0.00 43 1015.3
20260831090104 77 114 2.0 4.0 0.00 0.00 0.00 43 1015.2
20260831084547 75 98 1.0 5.0 0.00 0.00 0.00 44 1015.1
20260831083045 74 111 1.0 3.0 0.00 0.00 0.00 46 1015.0
20260831081547 73 116 1.0 6.0 0.00 0.00 0.00 47 1014.9
20260831080044 72 80 3.0 6.0 0.00 0.00 0.00 50 1015.0
20260831074541 71 83 1.0 4.0 0.00 0.00 0.00 53 1014.9
20260831073040 70 88 1.0 2.0 0.00 0.00 0.00 54 1015.0
20260831071539 68 99 0.0 0.0 0.00 0.00 0.00 58 1014.9
20260831070038 66 99 0.0 0.0 0.00 0.00 0.00 61 1014.7
20260831064538 67 101 0.0 0.0 0.00 0.00 0.00 62 1014.6